Regional Weather Roundup
Issued by NWS

Home | Current Version | Previous Version | Text Only | Print | Product List | Glossary Off
Versions: 1 2 3 4 5 6 7 8 9 10 11 12 13 14 15 16 17 18 19 20 21 22 23 24 25 26 27 28 29 30 31 32 33 34 35 36 37 38 39 40 41 42 43 44 45 46 47 48 49 50

000
ASUS45 KPSR 202000
RWRAZ

ARIZONA REGIONAL HOURLY WEATHER ROUNDUP
NATIONAL WEATHER SERVICE PHOENIX AZ
100 PM MST MON APR 20 2015

NOTE: FAIR INDICATES FEW OR NO CLOUDS BELOW 12,000 FEET WITH NO
SIGNIFICANT WEATHER AND/OR OBSTRUCTIONS TO VISIBILITY.

AZZ001>003-036-202100-
NORTHWEST ARIZONA

CITY           SKY/WX    TMP DP  RH WIND       PRES   REMARKS
KINGMAN        SUNNY     82  13   7 SW18G26   29.88F
$$

AZZ004>008-015-016-018-202100-
NORTH CENTRAL ARIZONA

CITY           SKY/WX    TMP DP  RH WIND       PRES   REMARKS
GRAND CANYON   PTSUNNY   62  18  18 W17G25    30.03R
WILLIAMS       MOSUNNY   66  14  13 W8G24     30.09F
PRESCOTT       PTSUNNY   73  14  10 MISG      29.96F
FLAGSTAFF      NOT AVBL
PAYSON         MOSUNNY   72  18  13 VRB5G14   29.98F
PAGE           SUNNY     75  21  13 N7        29.87F
$$

AZZ009>014-017-202100-
NORTHEAST ARIZONA

CITY           SKY/WX    TMP DP  RH WIND       PRES   REMARKS
WINSLOW        NOT AVBL
SAINT JOHNS    MOSUNNY   71  16  12 W17G23    29.95
WINDOW ROCK    PTSUNNY   61  20  20 SW7G17    30.01F
SHOW LOW       PTSUNNY   61  19  20 NW13G21   30.03S
$$

AZZ023-202100-
GREATER PHOENIX AREA

CITY           SKY/WX    TMP DP  RH WIND       PRES   REMARKS
PHOENIX        MOSUNNY   88  21   8 N3        29.78
GLENDALE       MOSUNNY   88  21   8 VRB5      29.80F
DEER VALLEY    SUNNY     85  19   9 W5        29.79F
SCOTTSDALE     SUNNY     85  19   9 CALM      29.81
MESA-FALCON    MOSUNNY   86  19   8 W12       29.80F
MESA-GATEWAY   MOSUNNY   84  25  11 N5        29.82F
CHANDLER       MOSUNNY   86  23  10 SW7       29.80
$$

AZZ027-028-202100-
SOUTHWEST MARICOPA COUNTY AND PINAL COUNTY

CITY           SKY/WX    TMP DP  RH WIND       PRES   REMARKS
CASA GRANDE    SUNNY     88  27  11 CALM      29.79F
$$

AZZ503-504-507>509-202100-
SOUTHEAST ARIZONA

CITY           SKY/WX    TMP DP  RH WIND       PRES   REMARKS
TUCSON         SUNNY     84  18   8 VRB6      29.86
RYAN FIELD       N/A     84  21  10 W8        29.85F
NOGALES        SUNNY     80  22  11 VRB7      29.90
SAFFORD        SUNNY     83  22  10 CALM      29.85F
$$

AZZ020-021-025-026-031-202100-
SOUTHWEST ARIZONA

CITY           SKY/WX    TMP DP  RH WIND       PRES   REMARKS
YUMA           MOSUNNY   90  39  16 SW14G20   29.76F
$$

CAZ031-033-041-043-047-048-061-202100-
SOUTHERN CALIFORNIA

CITY           SKY/WX    TMP DP  RH WIND       PRES   REMARKS
DOWNTOWN L.A.  SUNNY     68  51  54 VRB5      29.88F
L.A. AIRPORT   MOSUNNY   62  50  64 W10       29.90F
SAN DIEGO      MOSUNNY   67  49  52 NW8       29.90F
BURBANK        SUNNY     68  50  52 SE10      29.86F
ONTARIO        MOSUNNY   74  48  39 SW10      29.86F
RIVERSIDE      SUNNY     71  46  40 NW6       29.86F
PALM SPRINGS   SUNNY     88  31  13 E8        29.77F
EL CENTRO NAS  MOSUNNY   87  43  21 VRB5      29.75F
IMPERIAL       SUNNY     87  37  17 E8        29.74F
BLYTHE         SUNNY     89  23   9 S13G18    29.75F
$$

NVZ020-UTZ003-202100-
SOUTHERN NEVADA-UTAH

CITY           SKY/WX    TMP DP  RH WIND       PRES   REMARKS
LAS VEGAS      NOT AVBL
SALT LAKE CITY MOSUNNY   66  23  19 NW8       29.92F
$$

NMZ009-TXZ055-202100-
NEW MEXICO-WEST TEXAS

CITY           SKY/WX    TMP DP  RH WIND       PRES   REMARKS
ALBUQUERQUE    LGT RAIN  62  31  31 E21G33    29.96S
EL PASO        MOSUNNY   77  28  16 VRB5      29.91
$$


........................KEY........................
SKY/WX - SKY CONDITION/WEATHER
TMP    - TEMPERATURE IN FAHRENHEIT
DP     - DEW POINT IN FAHRENHEIT
RH     - RELATIVE HUMIDITY IN PERCENT
WIND   - DIRECTION AND SPEED IN MILES PER HOUR (MPH)
VRB    - VARIABLE WIND DIRECTION
PRES   - MEAN SEA LEVEL PRESSURE IN INCHES OF MERCURY
         F - FALLING PRESSURE   R - RISING PRESSURE
         S - STEADY PRESSURE
VSB    - VISIBILITY IN MILES
HX     - HEAT INDEX IN FAHRENHEIT
WCI    - WIND CHILL INDEX IN FAHRENHEIT
TC     - TEMPERATURE IN CELSIUS WHICH IS ALSO KNOWN AS
         TEMPERATURE IN CENTIGRADE
AFB    - AIR FORCE BASE
         LUKE AFB IS LUKE AIR FORCE BASE
         DAVIS-MONTHAN IS DAVIS-MONTHAN AIR FORCE BASE
NAS    - NAVAL AIR STATION
         EL CENTRO NAS IS EL CENTRO NAVAL AIR STATION
N/A    - NOT AVAILABLE



USA.gov is the U.S. government's official web portal to all federal, state and local government web resources and services.